This is the latest recevied weather packets stored in our database for station/object W2OBX. If no packets are shown the sender has not sent any weather packets the latest 10 day(s).
| Time | Temp. | Humidity | Pressure | Rain* | Wind** | Luminosity | Snow |
|---|---|---|---|---|---|---|---|
| 1778165490 | 13.33° C | 99% | 1013.7 hPa | 0 mm | - | 42 W/m² | - |
| 1778165186 | 12.78° C | 99% | 1013.7 hPa | 0 mm | - | 48 W/m² | - |
| 1778164885 | 12.78° C | 99% | 1013.6 hPa | 0 mm | - | 37 W/m² | - |
| 1778164581 | 12.78° C | 99% | 1013.8 hPa | 0 mm | - | 18 W/m² | - |
| 1778164278 | 12.78° C | 99% | 1013.8 hPa | 0 mm | - | 35 W/m² | - |
| 1778163973 | 12.78° C | 99% | 1013.8 hPa | 0 mm | - | 32 W/m² | - |
| 1778163671 | 12.78° C | 99% | 1013.6 hPa | 0 mm | - | 33 W/m² | - |
| 1778163367 | 12.78° C | 99% | 1013.7 hPa | 0 mm | - | 31 W/m² | - |
| 1778163064 | 12.78° C | 99% | 1013.6 hPa | 0 mm | - | 18 W/m² | - |
| 1778162760 | 12.78° C | 99% | 1013.5 hPa | 0 mm | - | 18 W/m² | - |
| 1778162458 | 12.78° C | 99% | 1013.6 hPa | 0 mm | - | 19 W/m² | - |
| 1778162155 | 12.78° C | 99% | 1013.7 hPa | 0 mm | - | 20 W/m² | - |
| 1778161852 | 12.78° C | 99% | 1013.6 hPa | 0 mm | - | 20 W/m² | - |
| 1778161548 | 13.33° C | 99% | 1013.5 hPa | 0 mm | - | 22 W/m² | - |
| 1778161244 | 13.33° C | 99% | 1013.4 hPa | 0 mm | - | 29 W/m² | - |
| 1778160940 | 13.33° C | 99% | 1013.5 hPa | 0 mm | - | 36 W/m² | - |
| 1778160639 | 12.78° C | 99% | 1013.5 hPa | 0 mm | - | 22 W/m² | - |
| 1778160335 | 13.33° C | 99% | 1013.6 hPa | 0 mm | - | 17 W/m² | - |
| 1778160031 | 13.33° C | 99% | 1013.5 hPa | 0 mm | - | 20 W/m² | - |
| 1778159728 | 13.33° C | 99% | 1013.5 hPa | 0 mm | - | 22 W/m² | - |
| 1778159426 | 13.33° C | 99% | 1013.6 hPa | 0 mm | - | 25 W/m² | - |
| 1778159122 | 13.33° C | 99% | 1013.5 hPa | 0 mm | - | 21 W/m² | - |
| 1778158821 | 13.33° C | 99% | 1013.5 hPa | 0 mm | - | 19 W/m² | - |
| 1778158519 | 13.33° C | 99% | 1013.1 hPa | 0 mm | - | 25 W/m² | - |
| 1778158216 | 13.33° C | 99% | 1013.1 hPa | 0 mm | - | 19 W/m² | - |
* Rain latest hour (hover to see other rain measurements)
** Current wind speed in m/s (hover to see current wind gust speed)